Location: Goudex
(43.3760°N, 0.9543°E)
Time: 07:54:27
(UTC+00:00)

COSMOS 2487 - Pass Details

Date: 20 November 2019
Orbit: 443 x 448 km, 74.7° (Epoch: 14 December)

Event Time Altitude Azimuth Distance (km) Brightness Sun altitude
Exits shadow 04:29:49 32° 79° (E) 792 4.1 -26.2°
Drops below altitude 10° 04:32:23 10° 37° (NE) 1,572 5.5 -25.8°
Sets 04:34:34 0° 28° (NNE) 2,448 6.4 -25.4°
